Retour au catalogue

HAWK-6A

ActifMilitaireVLEO
NORAD 55327·PAYLOAD·🇺🇸 United States

Lancé Jan 24, 2023 depuis Wallops Flight Facility

Loading…

Prochains Passages (prochaines 24 heures)

TLE

FraisSource: Space-Track

Époque: Sep 14, 2026, 03:34 UTC

1 55327U 23011D   26257.14926506  .00003947  00000-0  16946-3 0  9996
2 55327  40.4974 191.3703 0003955 278.4633  81.5728 15.23598441201423

Suivez HAWK-6A en temps réel avec AllMySat

Download on the App Store